Погода в Гейрангере

Норвегия     62°05′46″N   7°12′41″E
темп.,
°C
ветер,
м/с
пор.,
м/с
влажн.,
%
обл.,
%
осадки,
мм/ч
давл.,
гПа
погр.,
м
6 мая, чт
чт623:00−6вюв3288100 0.0 100116
02:00−6вюв3291100 0.0 100124
05:00−6вюв2294100 0.2 100140
08:00−4вюв2291100 0.5 1000149
11:00−2вюв118866 0.3 1000317
14:00−1с1186100 0.5 1000412
17:00−1с128143 0.4 1000469
20:00−2с228564 0.9 100126
7 мая, пт
пт723:00−8вюв229250 0.1 100410
02:00−9вюв229475 0.1 100514
05:00−10вюв229473 0.0 100714
08:00−6в119069 0.0 100582
11:00−3с228489 0.1 1005514
14:00−2сз2271100 0.1 1006868
17:00−2ссз226297 0.0 1007964
20:00−3ссз227977 0.1 1008164
8 мая, сб
сб823:00−5с129798 0.6 100996
02:00−6ссз119895 0.9 101046
05:00−7сз009893 0.1 101139
08:00−6юз008677 0.1 1010376
11:00−4юз11665 0.0 1010533
14:00−2ю115414 0.0 1009880
17:00−1ююв1252100 0.0 10081148
20:00−2ююв2266100 0.0 1007116
9 мая, вс
вс923:00−5юв2280100 0.0 100832
02:00−5вюв2279100 0.0 100745
05:00−5вюв3379100 0.0 100480
08:00−3вюв3376100 0.0 1002234
11:00−2юв3384100 0.3 999440
14:000юв2286100 1.1 999444
17:00+1юв2285100 0.1 998323
20:00+1юв2287100 0.1 99897
10 мая, пн
пн1023:00−1юв2299100 1.9 99975
02:000юв2398100 5.3 998105
05:00+1ююв2295100 1.6 99844
08:00+2ююв2298100 2.3 99932
11:00+3ю229688 0.0 100085
14:00+5ююв2395100 0.1 1001176
17:00+5ю2295100 0.1 1002120
20:00+3ююв2297100 1.1 100461